GLOBALSTAR M001 1 25162U 98008A 25290.83755286 -.00000132 00000+0 -26856-3 0 9990 2 25162 52.0054 336.2384 0001686 146.4426 24.2680 12.38219533258904 GLOBALSTAR M004 1 25163U 98008B 25290.71830337 -.00000046 00000+0 31886-3 0 9991 2 25163 52.0021 40.3339 0003208 189.8667 318.0972 12.63406057277177 GLOBALSTAR M002 1 25164U 98008C 25290.71084895 -.00000057 00000+0 37891-3 0 9996 2 25164 52.0014 292.9976 0001594 13.7371 346.3492 11.61512676198305 GLOBALSTAR M003 1 25165U 98008D 25290.98256078 -.00000203 00000+0 -12154-2 0 9998 2 25165 51.9931 188.4242 0007714 174.2772 198.9621 12.12054731248115 GLOBALSTAR M014 1 25306U 98023A 25290.94150228 -.00000089 00000+0 -21604-3 0 9991 2 25306 51.9826 213.0601 0000242 197.2135 240.5328 11.65482585205486 GLOBALSTAR M006 1 25307U 98023B 25290.36487340 -.00000044 00000+0 65677-3 0 9994 2 25307 51.9930 271.5585 0003255 333.2644 203.2310 11.58177204230988 GLOBALSTAR M015 1 25308U 98023C 25291.01501153 -.00000054 00000+0 44384-3 0 9990 2 25308 51.9860 14.0379 0012000 293.9651 237.4842 11.48859470208198 GLOBALSTAR M008 1 25309U 98023D 25290.98934839 -.00000067 00000+0 22685-3 0 9991 2 25309 51.9960 202.0178 0003419 71.8400 12.0043 12.36074343253034 GLOBALSTAR M023 1 25621U 99004A 25291.01386244 -.00000118 00000+0 -80546-4 0 9993 2 25621 52.0126 39.4271 0010317 41.7990 130.2362 12.62507856231243 GLOBALSTAR M040 1 25622U 99004B 25290.71470903 -.00000058 00000+0 25540-3 0 9990 2 25622 51.9936 44.6736 0000161 350.5872 157.0787 12.62019493230726 GLOBALSTAR M036 1 25623U 99004C 25290.71548916 -.00000021 00000+0 89401-3 0 9997 2 25623 51.9962 277.3603 0010578 286.1768 245.2959 11.86611889193524 GLOBALSTAR M038 1 25624U 99004D 25290.89808829 -.00000077 00000+0 15288-3 0 9992 2 25624 51.9967 78.1729 0001052 333.1762 192.1984 12.32533933217508 GLOBALSTAR M022 1 25649U 99012A 25290.78798598 -.00000065 00000+0 26756-3 0 9996 2 25649 52.0059 317.6171 0002796 58.2410 114.1090 12.02504390191125 GLOBALSTAR M041 1 25650U 99012B 25291.00224380 -.00000124 00000+0 -50162-3 0 9992 2 25650 52.0008 202.2281 0000919 174.3764 185.7083 11.96681430192983 GLOBALSTAR M046 1 25651U 99012C 25290.68701755 .00000079 00000+0 18522-2 0 9992 2 25651 52.0048 263.5522 0002058 126.6609 44.7141 12.09415025198480 GLOBALSTAR M037 1 25652U 99012D 25290.96302713 -.00000066 00000+0 21013-3 0 9992 2 25652 51.9988 170.1585 0002834 90.0896 282.9119 12.62452839226787 GLOBALSTAR M045 1 25676U 99019A 25291.00935166 -.00000068 00000+0 22342-3 0 9993 2 25676 51.9975 315.1998 0000463 95.9570 273.8844 12.27066369208477 GLOBALSTAR M019 1 25677U 99019B 25290.97711758 -.00000041 00000+0 51090-3 0 9991 2 25677 51.9855 94.2940 0001237 165.0084 346.2584 12.13876058200057 GLOBALSTAR M044 1 25678U 99019C 25290.81001391 -.00000091 00000+0 -10393-3 0 9997 2 25678 51.9977 61.4585 0005388 274.2217 240.0864 11.90260772185920 GLOBALSTAR M042 1 25679U 99019D 25290.76662733 -.00000066 00000+0 24181-3 0 9996 2 25679 52.0017 64.9038 0003225 176.1988 331.3920 12.22089544200244 GLOBALSTAR M025 1 25770U 99031A 25291.01420071 -.00000085 00000+0 -53678-3 0 9993 2 25770 51.9802 234.7331 0002577 0.0983 80.5280 11.22557679495503 GLOBALSTAR M049 1 25771U 99031B 25290.40807093 .00000004 00000+0 24179-2 0 9991 2 25771 51.9867 277.0444 0002572 226.3741 133.6843 11.12120147131024 GLOBALSTAR M047 1 25772U 99031C 25290.27872250 -.00000059 00000+0 29595-3 0 9993 2 25772 51.9817 262.6412 0016465 110.9785 249.2784 11.31930381484936 GLOBALSTAR M052 1 25773U 99031D 25290.97807937 -.00000104 00000+0 -12729-2 0 9993 2 25773 51.9906 22.6959 0002466 29.0594 141.8544 11.15061139492208 GLOBALSTAR M035 1 25851U 99037A 25290.94831459 -.00000048 00000+0 58105-3 0 9994 2 25851 51.9911 141.1956 0013379 175.6118 323.5731 11.04539689109828 GLOBALSTAR M032 1 25852U 99037B 25290.79457867 -.00000022 00000+0 14356-2 0 9996 2 25852 51.9968 318.2819 0012370 13.6718 346.4415 11.19063262148510 GLOBALSTAR M051 1 25853U 99037C 25290.92241704 -.00000058 00000+0 33901-3 0 9990 2 25853 51.9761 104.8048 0001516 88.0927 272.0057 11.42205391146413 GLOBALSTAR M030 1 25854U 99037D 25290.96265194 -.00000100 00000+0 -52193-3 0 9997 2 25854 51.9871 263.0087 0002968 272.4818 87.5659 11.55114448164230 GLOBALSTAR M048 1 25872U 99041A 25290.93342133 -.00000076 00000+0 -15565-3 0 9992 2 25872 51.9393 44.5570 0013489 40.6663 80.1669 11.33859412138909 GLOBALSTAR M026 1 25873U 99041B 25290.97995527 -.00000105 00000+0 -15086-2 0 9998 2 25873 52.0000 257.7892 0001807 104.9647 353.6772 11.06851492162088 GLOBALSTAR M043 1 25874U 99041C 25290.90955763 .00000003 00000+0 21076-2 0 9991 2 25874 51.9373 157.1518 0013445 156.2767 323.3683 11.25695688136699 GLOBALSTAR M028 1 25875U 99041D 25290.99611375 -.00000073 00000+0 17613-3 0 9990 2 25875 51.9614 186.8697 0063375 338.9265 20.8988 12.50589756205549 GLOBALSTAR M024 1 25883U 99043A 25290.94775330 -.00000053 00000+0 41243-3 0 9992 2 25883 51.9990 103.6279 0000593 345.8101 184.7935 11.10170425128491 GLOBALSTAR M027 1 25884U 99043B 25290.95933763 .00000017 00000+0 30520-2 0 9994 2 25884 52.0193 185.0662 0020853 187.8588 172.1881 11.04372972154802 GLOBALSTAR M054 1 25885U 99043C 25290.95352931 -.00000043 00000+0 73013-3 0 9992 2 25885 52.0137 291.7771 0005409 27.4422 344.8268 11.39221042133042 GLOBALSTAR M053 1 25886U 99043D 25290.93837203 -.00000072 00000+0 -99548-4 0 9996 2 25886 51.9972 245.7168 0003320 301.2536 154.2590 11.27667679133291 GLOBALSTAR M058 1 25907U 99049A 25290.94868761 -.00000068 00000+0 22791-3 0 9999 2 25907 51.9914 141.3680 0002511 130.0283 230.0772 11.93202994556190 GLOBALSTAR M050 1 25908U 99049B 25290.99847223 -.00000050 00000+0 43189-3 0 9990 2 25908 51.9968 139.7353 0008108 278.5798 230.0421 12.07459161163028 GLOBALSTAR M033 1 25909U 99049C 25290.88628899 -.00000193 00000+0 -97899-3 0 9991 2 25909 51.9941 3.3988 0014238 156.4662 203.6840 12.20294286550723 GLOBALSTAR M055 1 25910U 99049D 25290.93899456 -.00000072 00000+0 19306-3 0 9990 2 25910 52.0049 8.0221 0007001 30.9136 329.2127 12.29433851183389 GLOBALSTAR M057 1 25943U 99058A 25290.93128054 -.00000083 00000+0 93588-4 0 9992 2 25943 52.0016 359.8555 0002182 258.8789 101.1815 12.24827560181979 GLOBALSTAR M059 1 25944U 99058B 25290.56277468 -.00000140 00000+0 -66607-3 0 9992 2 25944 52.0008 236.1054 0000430 68.8709 102.8876 11.99987168588739 GLOBALSTAR M056 1 25945U 99058C 25290.57261046 -.00000142 00000+0 -63206-3 0 9993 2 25945 51.9954 234.9005 0001449 57.4613 114.3819 12.04779259177375 GLOBALSTAR M031 1 25946U 99058D 25290.98785637 -.00000151 00000+0 -60922-3 0 9998 2 25946 51.9936 118.7398 0002360 78.7499 80.0229 12.16041782179485 GLOBALSTAR M039 1 25961U 99062A 25290.57718697 -.00000086 00000+0 10009-3 0 9994 2 25961 51.9834 255.9371 0002189 264.3787 95.6830 12.62333685195672 GLOBALSTAR M034 1 25962U 99062B 25290.76885775 -.00000039 00000+0 66496-3 0 9997 2 25962 51.9889 52.7410 0013327 272.0705 236.4952 11.79449646152857 GLOBALSTAR M029 1 25963U 99062C 25290.99568866 -.00000065 00000+0 26478-3 0 9997 2 25963 51.9777 122.8640 0002767 22.5979 144.0799 11.99902361183863 GLOBALSTAR M061 1 25964U 99062D 25290.63236308 -.00000098 00000+0 -29109-3 0 9993 2 25964 51.9784 238.7594 0005436 192.4863 338.4216 11.76777566135594 GLOBALSTAR M063 1 26081U 00008A 25290.95498581 -.00000034 00000+0 70996-3 0 9993 2 26081 51.9923 148.2443 0004317 177.2743 328.5741 11.86176419172149 GLOBALSTAR M062 1 26082U 00008B 25290.96360736 -.00000048 00000+0 35628-3 0 9993 2 26082 51.9832 94.7288 0007305 22.0212 119.4797 12.43474833511891 GLOBALSTAR M060 1 26083U 00008C 25290.80898568 -.00000019 00000+0 71831-3 0 9990 2 26083 52.0019 72.5385 0003406 30.8227 147.1847 12.17668404167301 GLOBALSTAR M064 1 26084U 00008D 25290.59225229 -.00000076 00000+0 10826-3 0 9995 2 26084 52.0019 246.5845 0001393 315.1566 44.9153 11.88537584181653 GLOBALSTAR M065 1 31571U 07020A 25290.99042522 -.00000084 00000+0 11245-3 0 9995 2 31571 51.9885 212.4904 0009349 218.5312 223.3109 12.62010128848917 GLOBALSTAR M069 1 31573U 07020C 25290.96404378 -.00000109 00000+0 -15161-3 0 9995 2 31573 52.0026 217.7087 0002335 22.0383 56.6897 12.23462131849152 GLOBALSTAR M072 1 31574U 07020D 25291.00188830 -.00000083 00000+0 13927-4 0 9993 2 31574 51.9965 25.0054 0001318 177.5534 353.4250 11.91652195846109 GLOBALSTAR M071 1 31576U 07020F 25290.64891112 -.00000024 00000+0 65968-3 0 9994 2 31576 52.0054 247.6717 0001230 13.6916 157.5130 12.18259727509860 GLOBALSTAR M067 1 32263U 07048A 25290.61678719 -.00000072 00000+0 18874-3 0 9998 2 32263 51.9749 37.6876 0000807 202.9819 170.5495 12.40679929824684 GLOBALSTAR M070 1 32264U 07048B 25290.96501707 -.00000075 00000+0 16276-3 0 9996 2 32264 51.9724 114.4685 0001096 87.1934 68.7660 12.62324577829173 GLOBALSTAR M066 1 32265U 07048C 25291.01435512 -.00000102 00000+0 -60539-4 0 9998 2 32265 51.9614 33.1157 0004300 250.7260 280.1381 12.30377720830416 GLOBALSTAR M068 1 32266U 07048D 25290.26712021 -.00000068 00000+0 19824-3 0 9998 2 32266 51.9883 290.1146 0001376 50.0413 323.2804 12.62830891832980 GLOBALSTAR M079 1 37188U 10054A 25291.01304845 -.00000080 00000+0 13067-3 0 9999 2 37188 52.0015 125.8845 0000873 105.6918 54.2705 12.62267876691964 GLOBALSTAR M074 1 37189U 10054B 25290.95760981 -.00000068 00000+0 19910-3 0 9998 2 37189 51.9994 125.3569 0000818 84.9319 62.5682 12.62272662692562 GLOBALSTAR M076 1 37190U 10054C 25290.97721030 -.00000049 00000+0 30517-3 0 9999 2 37190 52.0006 125.4807 0000629 96.8075 18.9730 12.62266714692286 GLOBALSTAR M077 1 37191U 10054D 25290.94481669 -.00000083 00000+0 10091-3 0 9991 2 37191 52.0061 85.0692 0002004 40.8543 101.6082 12.36452529692629 GLOBALSTAR M075 1 37192U 10054E 25290.98779493 -.00000077 00000+0 15032-3 0 9994 2 37192 51.9929 167.6368 0000844 76.2717 28.6797 12.62268952691358 GLOBALSTAR M073 1 37193U 10054F 25290.92333017 -.00000097 00000+0 35570-4 0 9999 2 37193 52.0054 81.7436 0000783 114.4358 56.4821 12.62263622693336 GLOBALSTAR M083 1 37739U 11033A 25290.69350905 -.00000090 00000+0 74479-4 0 9996 2 37739 51.9933 31.0033 0000578 115.2435 32.5240 12.62263995662322 GLOBALSTAR M088 1 37740U 11033B 25290.75179133 -.00000076 00000+0 15232-3 0 9992 2 37740 52.0216 296.6716 0000456 71.4818 99.7695 12.62268964657874 GLOBALSTAR M091 1 37741U 11033C 25290.97351686 -.00000096 00000+0 43443-4 0 9990 2 37741 51.9988 259.3180 0000620 78.5391 321.4182 12.62260648658695 GLOBALSTAR M085 1 37742U 11033D 25290.96911933 -.00000097 00000+0 38426-4 0 9993 2 37742 52.0117 210.4122 0000828 82.6240 357.2480 12.62265738659206 GLOBALSTAR M081 1 37743U 11033E 25290.99584029 -.00000102 00000+0 10880-4 0 9990 2 37743 51.9950 213.0429 0000592 80.4215 0.6166 12.62269290659358 GLOBALSTAR M089 1 37744U 11033F 25290.96092602 -.00000080 00000+0 13065-3 0 9991 2 37744 51.9921 167.3541 0000691 62.0210 41.0209 12.62271743660191 GLOBALSTAR M084 1 38040U 11080A 25290.75029373 -.00000102 00000+0 79825-5 0 9998 2 38040 52.0031 35.3453 0000308 97.8527 67.3071 12.62269445638147 GLOBALSTAR M080 1 38041U 11080B 25290.71881034 -.00000098 00000+0 32537-4 0 9997 2 38041 52.0079 37.0759 0001111 96.9525 54.3071 12.62269706638268 GLOBALSTAR M082 1 38042U 11080C 25290.89686988 -.00000079 00000+0 14029-3 0 9992 2 38042 52.0102 352.0108 0000801 104.4762 66.9121 12.62263841638996 GLOBALSTAR M092 1 38043U 11080D 25290.67736869 -.00000086 00000+0 99693-4 0 9992 2 38043 52.0072 83.0597 0000822 96.5166 276.0112 12.62267058637423 GLOBALSTAR M090 1 38044U 11080E 25290.92631164 -.00000074 00000+0 16589-3 0 9992 2 38044 52.0146 345.7996 0000545 119.0505 65.3214 12.62262965639119 GLOBALSTAR M086 1 38045U 11080F 25290.86942024 -.00000074 00000+0 16483-3 0 9999 2 38045 51.9921 346.2966 0000813 208.2715 323.7219 12.62278270639059 GLOBALSTAR M097 1 39072U 13005A 25290.62157322 -.00000104 00000+0 -17941-5 0 9999 2 39072 52.0042 261.7281 0000403 87.5721 272.5192 12.62266524586272 GLOBALSTAR M093 1 39073U 13005B 25290.59556724 -.00000096 00000+0 44362-4 0 9990 2 39073 52.0096 255.0621 0000515 105.5690 254.5234 12.62265362586227 GLOBALSTAR M094 1 39074U 13005C 25290.91198946 -.00000081 00000+0 12658-3 0 9991 2 39074 51.9942 168.4564 0000828 93.2657 266.8304 12.62264413587874 GLOBALSTAR M096 1 39075U 13005D 25290.92518708 -.00000105 00000+0 -51052-5 0 9996 2 39075 52.0065 217.0256 0000729 86.0005 274.0945 12.62267665586793 GLOBALSTAR M078 1 39076U 13005E 25290.74088773 -.00000079 00000+0 13648-3 0 9997 2 39076 51.9874 301.9348 0001266 88.4361 271.6651 12.62261278585399 GLOBALSTAR M095 1 39077U 13005F 25291.00444781 -.00000076 00000+0 15654-3 0 9999 2 39077 52.0083 298.3909 0000755 107.7351 252.3599 12.62260956585289 GLOBALSTAR M087 1 52888U 22064A 25290.70088246 -.00000089 00000+0 82301-4 0 9993 2 52888 51.9989 80.6873 0000988 110.2939 249.8034 12.62289429160514